Weather in Kulikovo

Russia / Lipetsk Oblast     52°13′40″N   39°34′28″E
temp.,
°C
wind,
m/s
gust,
m/s
humid.,
%
clouds,
%
prec.,
mm/h
press.,
hPa
HPBL,
m
17 april, sat
sat1700:00+10ssw1164100 0.0 101912
03:00+8n1172100 0.0 101810
06:00+9ese1369100 0.0 101774
09:00+9w4778100 0.0 1018384
12:00+8wsw0190100 3.9 1018177
15:00+9sse1283100 4.7 1018385
18:00+9s1283100 0.9 1018126
21:00+8ssw118799 0.9 101815
18 april, sun
sun1800:00+6sse11915 0.0 101910
03:00+4sw23946 0.0 101950
06:00+4ssw229015 0.0 101943
09:00+9ssw247281 0.0 1019675
12:00+11ssw3456100 0.3 10191631
15:00+12s3453100 0.5 10191494
18:00+11sse236196 0.1 1019175
21:00+8ese2273100 0.1 101939
19 april, mon
mon1900:00+7se2278100 0.0 101935
03:00+7ese1278100 0.0 101916
06:00+7ese2274100 0.0 101935
09:00+11nne226267 0.1 1019380
12:00+13ene225095 0.2 10181581
15:00+14ene445096 0.7 10181504
18:00+9ene61078100 1.3 1019708
21:00+6ene51085100 1.3 1020646
20 april, tue
tue2000:00+5ene5887100 0.0 1020666
03:00+5ene4790100 0.0 1019651
06:00+6ene4984100 0.0 1017744
09:00+7ene51185100 0.0 1016587
12:00+8ene71284100 0.1 1014783
15:00+6e81791100 3.0 1009920
18:00+7ese102391100 9.6 10031316
21:00+10se132484100 14.6 10001342
21 april, wed
wed2100:00+12sse8168695 1.1 10011176
03:00+9sse71582100 1.2 1001941
06:00+9sse91685100 0.8 10011378
09:00+8ssw81491100 1.9 10031393
12:00+5ssw71483100 0.2 10081275
15:00+7sw71481100 0.3 10121368
18:00+7sw51278100 0.0 10151280
21:00+7ssw41181100 0.1 1018575